Year,Month,Day,Hour,Minute,Value (Times are PST for temperature in C)
2014,07,04,00,00,16.20
2014,07,04,00,01,16.20
2014,07,04,00,02,16.20
2014,07,04,00,03,16.10
2014,07,04,00,04,16.10
2014,07,04,00,05,16.10
2014,07,04,00,06,16.10
2014,07,04,00,07,16.10
2014,07,04,00,08,16.10
2014,07,04,00,09,16.10
2014,07,04,00,10,16.10
2014,07,04,00,11,16.00
2014,07,04,00,12,16.00
2014,07,04,00,13,16.00
2014,07,04,00,14,16.00
2014,07,04,00,15,16.00
2014,07,04,00,16,15.90
2014,07,04,00,17,15.90
2014,07,04,00,18,15.90
2014,07,04,00,19,15.90
2014,07,04,00,20,15.90
2014,07,04,00,21,15.90
2014,07,04,00,22,15.90
2014,07,04,00,23,15.80
2014,07,04,00,24,15.80
2014,07,04,00,25,15.80
2014,07,04,00,26,15.80
2014,07,04,00,27,15.80
2014,07,04,00,28,15.80
2014,07,04,00,29,15.80
2014,07,04,00,30,15.80
2014,07,04,00,31,15.80
2014,07,04,00,32,15.80
2014,07,04,00,33,15.70
2014,07,04,00,34,15.70
2014,07,04,00,35,15.70
2014,07,04,00,36,15.70
2014,07,04,00,37,15.70
2014,07,04,00,38,15.70
2014,07,04,00,39,15.70
2014,07,04,00,40,15.70
2014,07,04,00,41,15.70
2014,07,04,00,42,15.70
2014,07,04,00,43,15.70
2014,07,04,00,44,15.60
2014,07,04,00,45,15.60
2014,07,04,00,46,15.60
2014,07,04,00,47,15.60
2014,07,04,00,48,15.60
2014,07,04,00,49,15.60
2014,07,04,00,50,15.60
2014,07,04,00,51,15.60
2014,07,04,00,52,15.60
2014,07,04,00,53,15.60
2014,07,04,00,54,15.60
2014,07,04,00,55,15.60
2014,07,04,00,56,15.60
2014,07,04,00,57,15.60
2014,07,04,00,58,15.60
2014,07,04,00,59,15.50
2014,07,04,01,00,15.50
2014,07,04,01,01,15.50
2014,07,04,01,02,15.50
2014,07,04,01,03,15.50
2014,07,04,01,04,15.50
2014,07,04,01,05,15.40
2014,07,04,01,06,15.40
2014,07,04,01,07,15.40
2014,07,04,01,08,15.40
2014,07,04,01,09,15.40
2014,07,04,01,10,15.40
2014,07,04,01,11,15.40
2014,07,04,01,12,15.40
2014,07,04,01,13,15.40
2014,07,04,01,14,15.30
2014,07,04,01,15,15.30
2014,07,04,01,16,15.30
2014,07,04,01,17,15.30
2014,07,04,01,18,15.30
2014,07,04,01,19,15.30
2014,07,04,01,20,15.30
2014,07,04,01,21,15.20
2014,07,04,01,22,15.20
2014,07,04,01,23,15.20
2014,07,04,01,24,15.20
2014,07,04,01,25,15.20
2014,07,04,01,26,15.20
2014,07,04,01,27,15.20
2014,07,04,01,28,15.20
2014,07,04,01,29,15.10
2014,07,04,01,30,15.10
2014,07,04,01,31,15.10
2014,07,04,01,32,15.00
2014,07,04,01,33,15.00
2014,07,04,01,34,15.00
2014,07,04,01,35,15.00
2014,07,04,01,36,15.00
2014,07,04,01,37,15.00
2014,07,04,01,38,15.00
2014,07,04,01,39,15.00
2014,07,04,01,40,15.00
2014,07,04,01,41,15.00
2014,07,04,01,42,15.00
2014,07,04,01,43,15.00
2014,07,04,01,44,15.00
2014,07,04,01,45,15.00
2014,07,04,01,46,15.00
2014,07,04,01,47,15.00
2014,07,04,01,48,15.00
2014,07,04,01,49,15.00
2014,07,04,01,50,15.00
2014,07,04,01,51,15.00
2014,07,04,01,52,14.90
2014,07,04,01,53,14.90
2014,07,04,01,54,14.90
2014,07,04,01,55,14.90
2014,07,04,01,56,14.90
2014,07,04,01,57,14.80
2014,07,04,01,58,14.80
2014,07,04,01,59,14.80
2014,07,04,02,00,14.80
2014,07,04,02,01,14.80
2014,07,04,02,02,14.70
2014,07,04,02,03,14.70
2014,07,04,02,04,14.60
2014,07,04,02,05,14.50
2014,07,04,02,06,14.40
2014,07,04,02,07,14.40
2014,07,04,02,08,14.30
2014,07,04,02,09,14.30
2014,07,04,02,10,14.30
2014,07,04,02,11,14.30
2014,07,04,02,12,14.30
2014,07,04,02,13,14.30
2014,07,04,02,14,14.30
2014,07,04,02,15,14.30
2014,07,04,02,16,14.40
2014,07,04,02,17,14.40
2014,07,04,02,18,14.40
2014,07,04,02,19,14.40
2014,07,04,02,20,14.40
2014,07,04,02,21,14.40
2014,07,04,02,22,14.50
2014,07,04,02,23,14.50
2014,07,04,02,24,14.50
2014,07,04,02,25,14.50
2014,07,04,02,26,14.60
2014,07,04,02,27,14.60
2014,07,04,02,28,14.60
2014,07,04,02,29,14.50
2014,07,04,02,30,14.50
2014,07,04,02,31,14.50
2014,07,04,02,32,14.50
2014,07,04,02,33,14.50
2014,07,04,02,34,14.50
2014,07,04,02,35,14.50
2014,07,04,02,36,14.50
2014,07,04,02,37,14.50
2014,07,04,02,38,14.50
2014,07,04,02,39,14.50
2014,07,04,02,40,14.50
2014,07,04,02,41,14.60
2014,07,04,02,42,14.60
2014,07,04,02,43,14.60
2014,07,04,02,44,14.60
2014,07,04,02,45,14.70
2014,07,04,02,46,14.70
2014,07,04,02,47,14.70
2014,07,04,02,48,14.70
2014,07,04,02,49,14.70
2014,07,04,02,50,14.70
2014,07,04,02,51,14.70
2014,07,04,02,52,14.70
2014,07,04,02,53,14.60
2014,07,04,02,54,14.60
2014,07,04,02,55,14.60
2014,07,04,02,56,14.60
2014,07,04,02,57,14.60
2014,07,04,02,58,14.60
2014,07,04,02,59,14.60
2014,07,04,03,00,14.60
2014,07,04,03,01,14.60
2014,07,04,03,02,14.60
2014,07,04,03,03,14.60
2014,07,04,03,04,14.60
2014,07,04,03,05,14.60
2014,07,04,03,06,14.60
2014,07,04,03,07,14.60
2014,07,04,03,08,14.60
2014,07,04,03,09,14.60
2014,07,04,03,10,14.60
2014,07,04,03,11,14.60
2014,07,04,03,12,14.60
2014,07,04,03,13,14.60
2014,07,04,03,14,14.60
2014,07,04,03,15,14.60
2014,07,04,03,16,14.60
2014,07,04,03,17,14.60
2014,07,04,03,18,14.50
2014,07,04,03,19,14.50
2014,07,04,03,20,14.50
2014,07,04,03,21,14.50
2014,07,04,03,22,14.50
2014,07,04,03,23,14.50
2014,07,04,03,24,14.40
2014,07,04,03,25,14.40
2014,07,04,03,26,14.40
2014,07,04,03,27,14.40
2014,07,04,03,28,14.40
2014,07,04,03,29,14.40
2014,07,04,03,30,14.40
2014,07,04,03,31,14.40
2014,07,04,03,32,14.40
2014,07,04,03,33,14.30
2014,07,04,03,34,14.30
2014,07,04,03,35,14.30
2014,07,04,03,36,14.30
2014,07,04,03,37,14.30
2014,07,04,03,38,14.30
2014,07,04,03,39,14.30
2014,07,04,03,40,14.30
2014,07,04,03,41,14.30
2014,07,04,03,42,14.30
2014,07,04,03,43,14.20
2014,07,04,03,44,14.20
2014,07,04,03,45,14.20
2014,07,04,03,46,14.20
2014,07,04,03,47,14.20
2014,07,04,03,48,14.20
2014,07,04,03,49,14.10
2014,07,04,03,50,14.10
2014,07,04,03,51,14.10
2014,07,04,03,52,14.10
2014,07,04,03,53,14.10
2014,07,04,03,54,14.10
2014,07,04,03,55,14.10
2014,07,04,03,56,14.10
2014,07,04,03,57,14.10
2014,07,04,03,58,14.10
2014,07,04,03,59,14.10
2014,07,04,04,00,14.00
2014,07,04,04,01,14.00
2014,07,04,04,02,14.00
2014,07,04,04,03,14.00
2014,07,04,04,04,14.00
2014,07,04,04,05,14.00
2014,07,04,04,06,14.00
2014,07,04,04,07,13.90
2014,07,04,04,08,13.90
2014,07,04,04,09,13.90
2014,07,04,04,10,13.90
2014,07,04,04,11,13.90
2014,07,04,04,12,13.90
2014,07,04,04,13,13.90
2014,07,04,04,14,13.80
2014,07,04,04,15,13.80
2014,07,04,04,16,13.80
2014,07,04,04,17,13.80
2014,07,04,04,18,13.80
2014,07,04,04,19,13.80
2014,07,04,04,20,13.80
2014,07,04,04,21,13.80
2014,07,04,04,22,13.80
2014,07,04,04,23,13.80
2014,07,04,04,24,13.80
2014,07,04,04,25,13.80
2014,07,04,04,26,13.80
2014,07,04,04,27,13.90
2014,07,04,04,28,13.90
2014,07,04,04,29,13.90
2014,07,04,04,30,13.90
2014,07,04,04,31,13.90
2014,07,04,04,32,13.90
2014,07,04,04,33,13.90
2014,07,04,04,34,13.90
2014,07,04,04,35,13.90
2014,07,04,04,36,13.80
2014,07,04,04,37,13.80
2014,07,04,04,38,13.80
2014,07,04,04,39,13.80
2014,07,04,04,40,13.80
2014,07,04,04,41,13.80
2014,07,04,04,42,13.80
2014,07,04,04,43,13.80
2014,07,04,04,44,13.80
2014,07,04,04,45,13.80
2014,07,04,04,46,13.80
2014,07,04,04,47,13.80
2014,07,04,04,48,13.80
2014,07,04,04,49,13.80
2014,07,04,04,50,13.80
2014,07,04,04,51,13.80
2014,07,04,04,52,13.80
2014,07,04,04,53,13.70
2014,07,04,04,54,13.70
2014,07,04,04,55,13.70
2014,07,04,04,56,13.70
2014,07,04,04,57,13.70
2014,07,04,04,58,13.70
2014,07,04,04,59,13.70
2014,07,04,05,00,13.70
2014,07,04,05,01,13.70
2014,07,04,05,02,13.70
2014,07,04,05,03,13.70
2014,07,04,05,04,13.70
2014,07,04,05,05,13.70
2014,07,04,05,06,13.70
2014,07,04,05,07,13.70
2014,07,04,05,08,13.70
2014,07,04,05,09,13.70
2014,07,04,05,10,13.60
2014,07,04,05,11,13.60
2014,07,04,05,12,13.60
2014,07,04,05,13,13.60
2014,07,04,05,14,13.60
2014,07,04,05,15,13.60
2014,07,04,05,16,13.60
2014,07,04,05,17,13.60
2014,07,04,05,18,13.60
2014,07,04,05,19,13.60
2014,07,04,05,20,13.60
2014,07,04,05,21,13.60
2014,07,04,05,22,13.60
2014,07,04,05,23,13.60
2014,07,04,05,24,13.60
2014,07,04,05,25,13.60
2014,07,04,05,26,13.60
2014,07,04,05,27,13.50
2014,07,04,05,28,13.50
2014,07,04,05,29,13.50
2014,07,04,05,30,13.50
2014,07,04,05,31,13.50
2014,07,04,05,32,13.50
2014,07,04,05,33,13.40
2014,07,04,05,34,13.40
2014,07,04,05,35,13.40
2014,07,04,05,36,13.40
2014,07,04,05,37,13.40
2014,07,04,05,38,13.40
2014,07,04,05,39,13.40
2014,07,04,05,40,13.40
2014,07,04,05,41,13.40
2014,07,04,05,42,13.30
2014,07,04,05,43,13.30
2014,07,04,05,44,13.30
2014,07,04,05,45,13.30
2014,07,04,05,46,13.30
2014,07,04,05,47,13.30
2014,07,04,05,48,13.30
2014,07,04,05,49,13.30
2014,07,04,05,50,13.30
2014,07,04,05,51,13.30
2014,07,04,05,52,13.30
2014,07,04,05,53,13.20
2014,07,04,05,54,13.20
2014,07,04,05,55,13.20
2014,07,04,05,56,13.20
2014,07,04,05,57,13.10
2014,07,04,05,58,13.10
2014,07,04,05,59,13.10
2014,07,04,06,00,13.10
2014,07,04,06,01,13.10
2014,07,04,06,02,13.10
2014,07,04,06,03,13.10
2014,07,04,06,04,13.10
2014,07,04,06,05,13.10
2014,07,04,06,06,13.10
2014,07,04,06,07,13.10
2014,07,04,06,08,13.10
2014,07,04,06,09,13.20
2014,07,04,06,10,13.20
2014,07,04,06,11,13.20
2014,07,04,06,12,13.20
2014,07,04,06,13,13.20
2014,07,04,06,14,13.20
2014,07,04,06,15,13.30
2014,07,04,06,16,13.30
2014,07,04,06,17,13.30
2014,07,04,06,18,13.30
2014,07,04,06,19,13.30
2014,07,04,06,20,13.30
2014,07,04,06,21,13.30
2014,07,04,06,22,13.30
2014,07,04,06,23,13.30
2014,07,04,06,24,13.30
2014,07,04,06,25,13.30
2014,07,04,06,26,13.30
2014,07,04,06,27,13.30
2014,07,04,06,28,13.30
2014,07,04,06,29,13.40
2014,07,04,06,30,13.40
2014,07,04,06,31,13.40
2014,07,04,06,32,13.40
2014,07,04,06,33,13.40
2014,07,04,06,34,13.40
2014,07,04,06,35,13.40
2014,07,04,06,36,13.40
2014,07,04,06,37,13.40
2014,07,04,06,38,13.40
2014,07,04,06,39,13.50
2014,07,04,06,40,13.50
2014,07,04,06,41,13.50
2014,07,04,06,42,13.50
2014,07,04,06,43,13.50
2014,07,04,06,44,13.50
2014,07,04,06,45,13.60
2014,07,04,06,46,13.60
2014,07,04,06,47,13.60
2014,07,04,06,48,13.60
2014,07,04,06,49,13.60
2014,07,04,06,50,13.70
2014,07,04,06,51,13.70
2014,07,04,06,52,13.70
2014,07,04,06,53,13.70
2014,07,04,06,54,13.70
2014,07,04,06,55,13.70
2014,07,04,06,56,13.70
2014,07,04,06,57,13.70
2014,07,04,06,58,13.70
2014,07,04,06,59,13.80
2014,07,04,07,00,13.80
2014,07,04,07,01,13.80
2014,07,04,07,02,13.80
2014,07,04,07,03,13.80
2014,07,04,07,04,13.80
2014,07,04,07,05,13.80
2014,07,04,07,06,13.80
2014,07,04,07,07,13.90
2014,07,04,07,08,13.90
2014,07,04,07,09,13.90
2014,07,04,07,10,13.90
2014,07,04,07,11,13.90
2014,07,04,07,12,14.00
2014,07,04,07,13,14.00
2014,07,04,07,14,14.00
2014,07,04,07,15,14.00
2014,07,04,07,16,14.10
2014,07,04,07,17,14.10
2014,07,04,07,18,14.10
2014,07,04,07,19,14.10
2014,07,04,07,20,14.20
2014,07,04,07,21,14.20
2014,07,04,07,22,14.20
2014,07,04,07,23,14.20
2014,07,04,07,24,14.20
2014,07,04,07,25,14.20
2014,07,04,07,26,14.20
2014,07,04,07,27,14.20
2014,07,04,07,28,14.20
2014,07,04,07,29,14.30
2014,07,04,07,30,14.30
2014,07,04,07,31,14.30
2014,07,04,07,32,14.30
2014,07,04,07,33,14.40
2014,07,04,07,34,14.40
2014,07,04,07,35,14.40
2014,07,04,07,36,14.40
2014,07,04,07,37,14.50
2014,07,04,07,38,14.50
2014,07,04,07,39,14.60
2014,07,04,07,40,14.70
2014,07,04,07,41,14.70
2014,07,04,07,42,14.80
2014,07,04,07,43,14.80
2014,07,04,07,44,14.90
2014,07,04,07,45,15.00
2014,07,04,07,46,15.00
2014,07,04,07,47,15.00
2014,07,04,07,48,15.00
2014,07,04,07,49,14.90
2014,07,04,07,50,14.80
2014,07,04,07,51,14.80
2014,07,04,07,52,14.80
2014,07,04,07,53,14.80
2014,07,04,07,54,14.80
2014,07,04,07,55,14.80
2014,07,04,07,56,14.80
2014,07,04,07,57,14.80
2014,07,04,07,58,14.80
2014,07,04,07,59,14.80
2014,07,04,08,00,14.80
2014,07,04,08,01,14.90
2014,07,04,08,02,14.90
2014,07,04,08,03,14.90
2014,07,04,08,04,15.00
2014,07,04,08,05,15.00
2014,07,04,08,06,15.00
2014,07,04,08,07,15.00
2014,07,04,08,08,15.00
2014,07,04,08,09,15.00
2014,07,04,08,10,15.00
2014,07,04,08,11,15.00
2014,07,04,08,12,15.00
2014,07,04,08,13,15.10
2014,07,04,08,14,15.10
2014,07,04,08,15,15.20
2014,07,04,08,16,15.30
2014,07,04,08,17,15.30
2014,07,04,08,18,15.30
2014,07,04,08,19,15.30
2014,07,04,08,20,15.40
2014,07,04,08,21,15.40
2014,07,04,08,22,15.50
2014,07,04,08,23,15.60
2014,07,04,08,24,15.60
2014,07,04,08,25,15.60
2014,07,04,08,26,15.60
2014,07,04,08,27,15.70
2014,07,04,08,28,15.80
2014,07,04,08,29,15.80
2014,07,04,08,30,15.80
2014,07,04,08,31,15.90
2014,07,04,08,32,15.80
2014,07,04,08,33,15.90
2014,07,04,08,34,15.90
2014,07,04,08,35,16.00
2014,07,04,08,36,16.10
2014,07,04,08,37,16.20
2014,07,04,08,38,16.30
2014,07,04,08,39,16.30
2014,07,04,08,40,16.40
2014,07,04,08,41,16.50
2014,07,04,08,42,16.50
2014,07,04,08,43,16.50
2014,07,04,08,44,16.60
2014,07,04,08,45,16.60
2014,07,04,08,46,16.70
2014,07,04,08,47,16.80
2014,07,04,08,48,16.80
2014,07,04,08,49,16.80
2014,07,04,08,50,16.80
2014,07,04,08,51,16.80
2014,07,04,08,52,16.80
2014,07,04,08,53,16.90
2014,07,04,08,54,16.90
2014,07,04,08,55,16.90
2014,07,04,08,56,16.90
2014,07,04,08,57,16.90
2014,07,04,08,58,16.90
2014,07,04,08,59,17.00
2014,07,04,09,00,17.10
2014,07,04,09,01,17.10
2014,07,04,09,02,17.20
2014,07,04,09,03,17.20
2014,07,04,09,04,17.30
2014,07,04,09,05,17.20
2014,07,04,09,06,17.10
2014,07,04,09,07,16.90
2014,07,04,09,08,16.90
2014,07,04,09,09,16.80
2014,07,04,09,10,16.80
2014,07,04,09,11,16.70
2014,07,04,09,12,16.60
2014,07,04,09,13,16.50
2014,07,04,09,14,16.50
2014,07,04,09,15,16.40
2014,07,04,09,16,16.30
2014,07,04,09,17,16.10
2014,07,04,09,18,16.00
2014,07,04,09,19,15.90
2014,07,04,09,20,15.80
2014,07,04,09,21,15.70
2014,07,04,09,22,15.70
2014,07,04,09,23,15.70
2014,07,04,09,24,15.60
2014,07,04,09,25,15.60
2014,07,04,09,26,15.70
2014,07,04,09,27,15.70
2014,07,04,09,28,15.80
2014,07,04,09,29,15.80
2014,07,04,09,30,15.70
2014,07,04,09,31,15.70
2014,07,04,09,32,15.60
2014,07,04,09,33,15.50
2014,07,04,09,34,15.40
2014,07,04,09,35,15.20
2014,07,04,09,36,15.10
2014,07,04,09,37,15.00
2014,07,04,09,38,15.10
2014,07,04,09,39,15.20
2014,07,04,09,40,15.20
2014,07,04,09,41,15.30
2014,07,04,09,42,15.40
2014,07,04,09,43,15.40
2014,07,04,09,44,15.40
2014,07,04,09,45,15.40
2014,07,04,09,46,15.50
2014,07,04,09,47,15.50
2014,07,04,09,48,15.60
2014,07,04,09,49,15.60
2014,07,04,09,50,15.70
2014,07,04,09,51,15.70
2014,07,04,09,52,15.80
2014,07,04,09,53,15.80
2014,07,04,09,54,15.80
2014,07,04,09,55,15.90
2014,07,04,09,56,15.90
2014,07,04,09,57,15.90
2014,07,04,09,58,15.80
2014,07,04,09,59,15.80
2014,07,04,10,00,15.80
2014,07,04,10,01,15.80
2014,07,04,10,02,15.80
2014,07,04,10,03,15.90
2014,07,04,10,04,15.90
2014,07,04,10,05,16.00
2014,07,04,10,06,16.10
2014,07,04,10,07,16.10
2014,07,04,10,08,16.20
2014,07,04,10,09,16.30
2014,07,04,10,10,16.50
2014,07,04,10,11,16.60
2014,07,04,10,12,16.60
2014,07,04,10,13,16.60
2014,07,04,10,14,16.60
2014,07,04,10,15,16.70
2014,07,04,10,16,16.60
2014,07,04,10,17,16.60
2014,07,04,10,18,16.60
2014,07,04,10,19,16.60
2014,07,04,10,20,16.70
2014,07,04,10,21,16.70
2014,07,04,10,22,16.60
2014,07,04,10,23,16.50
2014,07,04,10,24,16.30
2014,07,04,10,25,16.20
2014,07,04,10,26,16.10
2014,07,04,10,27,16.00
2014,07,04,10,28,15.90
2014,07,04,10,29,15.90
2014,07,04,10,30,15.80
2014,07,04,10,31,15.80
2014,07,04,10,32,15.90
2014,07,04,10,33,15.90
2014,07,04,10,34,16.00
2014,07,04,10,35,16.00
2014,07,04,10,36,16.10
2014,07,04,10,37,16.20
2014,07,04,10,38,16.20
2014,07,04,10,39,16.20
2014,07,04,10,40,16.10
2014,07,04,10,41,16.10
2014,07,04,10,42,16.20
2014,07,04,10,43,16.10
2014,07,04,10,44,16.10
2014,07,04,10,45,16.10
2014,07,04,10,46,16.00
2014,07,04,10,47,16.00
2014,07,04,10,48,15.90
2014,07,04,10,49,16.00
2014,07,04,10,50,16.00
2014,07,04,10,51,16.10
2014,07,04,10,52,16.10
2014,07,04,10,53,16.20
2014,07,04,10,54,16.10
2014,07,04,11,10,16.00
2014,07,04,11,11,16.00
2014,07,04,11,12,16.10
2014,07,04,11,13,16.20
2014,07,04,11,14,16.30
2014,07,04,11,15,16.30
2014,07,04,11,16,16.40
2014,07,04,11,17,16.40
2014,07,04,11,18,16.40
2014,07,04,11,19,16.50
2014,07,04,11,20,16.50
2014,07,04,11,21,16.60
2014,07,04,11,22,16.50
2014,07,04,11,23,16.50
2014,07,04,11,24,16.40
2014,07,04,11,25,16.30
2014,07,04,11,26,16.30
2014,07,04,11,27,16.30
2014,07,04,11,28,16.30
2014,07,04,11,29,16.30
2014,07,04,11,30,16.30
2014,07,04,11,31,16.30
2014,07,04,11,32,16.30
2014,07,04,11,33,16.30
2014,07,04,11,34,16.30
2014,07,04,11,35,16.30
2014,07,04,11,36,16.30
2014,07,04,11,37,16.30
2014,07,04,11,38,16.30
2014,07,04,11,39,16.30
2014,07,04,11,40,16.30
2014,07,04,11,41,16.40
2014,07,04,11,42,16.50
2014,07,04,11,43,16.50
2014,07,04,11,44,16.60
2014,07,04,11,45,16.70
2014,07,04,11,46,16.70
2014,07,04,11,47,16.60
2014,07,04,11,48,16.60
2014,07,04,11,49,16.60
2014,07,04,11,50,16.60
2014,07,04,11,51,16.70
2014,07,04,11,52,16.80
2014,07,04,11,53,16.90
2014,07,04,11,54,16.90
2014,07,04,11,55,16.90
2014,07,04,11,56,16.90
2014,07,04,11,57,16.80
2014,07,04,11,58,16.70
2014,07,04,11,59,16.60
2014,07,04,12,00,16.60
2014,07,04,12,01,16.60
2014,07,04,12,02,16.70
2014,07,04,12,03,16.70
2014,07,04,12,04,16.70
2014,07,04,12,05,16.60
2014,07,04,12,06,16.60
2014,07,04,12,07,16.50
2014,07,04,12,08,16.50
2014,07,04,12,09,16.50
2014,07,04,12,10,16.50
2014,07,04,12,11,16.50
2014,07,04,12,12,16.60
2014,07,04,12,13,16.70
2014,07,04,12,14,16.70
2014,07,04,12,15,16.80
2014,07,04,12,16,16.80
2014,07,04,12,17,16.90
2014,07,04,12,18,17.00
2014,07,04,12,19,17.10
2014,07,04,12,20,17.20
2014,07,04,12,21,17.30
2014,07,04,12,22,17.50
2014,07,04,12,23,17.60
2014,07,04,12,24,17.70
2014,07,04,12,25,17.70
2014,07,04,12,26,17.70
2014,07,04,12,27,17.70
2014,07,04,12,28,17.70
2014,07,04,12,29,17.60
2014,07,04,12,30,17.50
2014,07,04,12,31,17.40
2014,07,04,12,32,17.20
2014,07,04,12,33,17.10
2014,07,04,12,34,16.90
2014,07,04,12,35,16.80
2014,07,04,12,36,16.70
2014,07,04,12,37,16.60
2014,07,04,12,38,16.60
2014,07,04,12,39,16.60
2014,07,04,12,40,16.60
2014,07,04,12,41,16.70
2014,07,04,12,42,16.70
2014,07,04,12,43,16.70
2014,07,04,12,44,16.70
2014,07,04,12,45,16.70
2014,07,04,12,46,16.70
2014,07,04,12,47,16.70
2014,07,04,12,48,16.80
2014,07,04,12,49,16.80
2014,07,04,12,50,16.80
2014,07,04,12,51,16.80
2014,07,04,12,52,16.80
2014,07,04,12,53,16.80
2014,07,04,12,54,16.80
2014,07,04,12,55,16.80
2014,07,04,12,56,16.80
2014,07,04,12,57,16.90
2014,07,04,12,58,16.90
2014,07,04,12,59,16.90
2014,07,04,13,00,16.90
2014,07,04,13,01,16.90
2014,07,04,13,02,16.90
2014,07,04,13,03,16.90
2014,07,04,13,04,16.90
2014,07,04,13,05,17.00
2014,07,04,13,06,17.00
2014,07,04,13,07,17.10
2014,07,04,13,08,17.20
2014,07,04,13,09,17.30
2014,07,04,13,10,17.30
2014,07,04,13,11,17.30
2014,07,04,13,12,17.30
2014,07,04,13,13,17.30
2014,07,04,13,14,17.30
2014,07,04,13,15,17.30
2014,07,04,13,16,17.30
2014,07,04,13,17,17.30
2014,07,04,13,18,17.40
2014,07,04,13,19,17.40
2014,07,04,13,20,17.40
2014,07,04,13,21,17.50
2014,07,04,13,22,17.70
2014,07,04,13,23,17.90
2014,07,04,13,24,18.10
2014,07,04,13,25,18.10
2014,07,04,13,26,18.10
2014,07,04,13,27,18.00
2014,07,04,13,28,17.90
2014,07,04,13,29,17.90
2014,07,04,13,30,17.90
2014,07,04,13,31,17.70
2014,07,04,13,32,17.70
2014,07,04,13,33,17.70
2014,07,04,13,34,17.70
2014,07,04,13,35,17.90
2014,07,04,13,36,18.00
2014,07,04,13,37,18.10
2014,07,04,13,38,18.20
2014,07,04,13,39,18.20
2014,07,04,13,40,18.20
2014,07,04,13,41,18.20
2014,07,04,13,42,18.30
2014,07,04,13,43,18.40
2014,07,04,13,44,18.40
2014,07,04,13,45,18.30
2014,07,04,13,46,18.40
2014,07,04,13,47,18.40
2014,07,04,13,48,18.50
2014,07,04,13,49,18.50
2014,07,04,13,50,18.50
2014,07,04,13,51,18.40
2014,07,04,13,52,18.20
2014,07,04,13,53,18.10
2014,07,04,13,54,18.10
2014,07,04,13,55,18.00
2014,07,04,13,56,17.90
2014,07,04,13,57,17.90
2014,07,04,13,58,17.80
2014,07,04,13,59,17.80
2014,07,04,14,00,17.70
2014,07,04,14,01,17.70
2014,07,04,14,02,17.60
2014,07,04,14,03,17.60
2014,07,04,14,04,17.70
2014,07,04,14,05,17.70
2014,07,04,14,06,17.60
2014,07,04,14,07,17.50
2014,07,04,14,08,17.30
2014,07,04,14,09,17.30
2014,07,04,14,10,17.20
2014,07,04,14,11,17.10
2014,07,04,14,12,17.10
2014,07,04,14,13,17.00
2014,07,04,14,14,17.00
2014,07,04,14,15,16.90
2014,07,04,14,16,16.90
2014,07,04,14,17,16.90
2014,07,04,14,18,17.00
2014,07,04,14,19,17.10
2014,07,04,14,20,17.20
2014,07,04,14,21,17.30
2014,07,04,14,22,17.30
2014,07,04,14,23,17.40
2014,07,04,14,24,17.40
2014,07,04,14,25,17.40
2014,07,04,14,26,17.40
2014,07,04,14,27,17.50
2014,07,04,14,28,17.40
2014,07,04,14,29,17.50
2014,07,04,14,30,17.50
2014,07,04,14,31,17.50
2014,07,04,14,32,17.50
2014,07,04,14,33,17.40
2014,07,04,14,34,17.40
2014,07,04,14,35,17.40
2014,07,04,14,36,17.50
2014,07,04,14,37,17.50
2014,07,04,14,38,17.60
2014,07,04,14,39,17.60
2014,07,04,14,40,17.60
2014,07,04,14,41,17.60
2014,07,04,14,42,17.60
2014,07,04,14,43,17.60
2014,07,04,14,44,17.60
2014,07,04,14,45,17.60
2014,07,04,14,46,17.60
2014,07,04,14,47,17.70
2014,07,04,14,48,17.70
2014,07,04,14,49,17.70
2014,07,04,14,50,17.60
2014,07,04,14,51,17.60
2014,07,04,14,52,17.50
2014,07,04,14,53,17.50
2014,07,04,14,54,17.40
2014,07,04,14,55,17.40
2014,07,04,14,56,17.40
2014,07,04,14,57,17.40
2014,07,04,14,58,17.40
2014,07,04,14,59,17.40
2014,07,04,15,00,17.40
2014,07,04,15,01,17.40
2014,07,04,15,02,17.50
2014,07,04,15,03,17.60
2014,07,04,15,04,17.60
2014,07,04,15,05,17.60
2014,07,04,15,06,17.70
2014,07,04,15,07,17.70
2014,07,04,15,08,17.70
2014,07,04,15,09,17.70
2014,07,04,15,10,17.70
2014,07,04,15,11,17.70
2014,07,04,15,12,17.70
2014,07,04,15,13,17.70
2014,07,04,15,14,17.70
2014,07,04,15,15,17.60
2014,07,04,15,16,17.50
2014,07,04,15,17,17.40
2014,07,04,15,18,17.40
2014,07,04,15,19,17.30
2014,07,04,15,20,17.30
2014,07,04,15,21,17.20
2014,07,04,15,22,17.20
2014,07,04,15,23,17.20
2014,07,04,15,24,17.20
2014,07,04,15,25,17.20
2014,07,04,15,26,17.20
2014,07,04,15,27,17.10
2014,07,04,15,28,17.10
2014,07,04,15,29,17.00
2014,07,04,15,30,16.90
2014,07,04,15,31,16.90
2014,07,04,15,32,16.80
2014,07,04,15,33,16.80
2014,07,04,15,34,16.70
2014,07,04,15,35,16.70
2014,07,04,15,36,16.70
2014,07,04,15,37,16.70
2014,07,04,15,38,16.70
2014,07,04,15,39,16.70
2014,07,04,15,40,16.60
2014,07,04,15,41,16.60
2014,07,04,15,42,16.60
2014,07,04,15,43,16.60
2014,07,04,15,44,16.60
2014,07,04,15,45,16.50
2014,07,04,15,46,16.50
2014,07,04,15,47,16.50
2014,07,04,15,48,16.50
2014,07,04,15,49,16.50
2014,07,04,15,50,16.50
2014,07,04,15,51,16.50
2014,07,04,15,52,16.50
2014,07,04,15,53,16.50
2014,07,04,15,54,16.50
2014,07,04,15,55,16.60
2014,07,04,15,56,16.60
2014,07,04,15,57,16.70
2014,07,04,15,58,16.70
2014,07,04,15,59,16.80
2014,07,04,16,00,16.80
2014,07,04,16,01,16.80
2014,07,04,16,02,16.90
2014,07,04,16,03,16.90
2014,07,04,16,04,16.90
2014,07,04,16,05,17.00
2014,07,04,16,06,17.10
2014,07,04,16,07,17.10
2014,07,04,16,08,17.10
2014,07,04,16,09,17.20
2014,07,04,16,10,17.20
2014,07,04,16,11,17.20
2014,07,04,16,12,17.30
2014,07,04,16,13,17.30
2014,07,04,16,14,17.30
2014,07,04,16,15,17.40
2014,07,04,16,16,17.40
2014,07,04,16,17,17.50
2014,07,04,16,18,17.50
2014,07,04,16,19,17.60
2014,07,04,16,20,17.60
2014,07,04,16,21,17.70
2014,07,04,16,22,17.70
2014,07,04,16,23,17.70
2014,07,04,16,24,17.70
2014,07,04,16,25,17.80
2014,07,04,16,26,17.80
2014,07,04,16,27,17.80
2014,07,04,16,28,17.80
2014,07,04,16,29,17.80
2014,07,04,16,30,17.80
2014,07,04,16,31,17.80
2014,07,04,16,32,17.90
2014,07,04,16,33,17.90
2014,07,04,16,34,17.90
2014,07,04,16,35,17.90
2014,07,04,16,36,17.90
2014,07,04,16,37,18.00
2014,07,04,16,38,18.00
2014,07,04,16,39,17.90
2014,07,04,16,40,17.90
2014,07,04,16,41,17.80
2014,07,04,16,42,17.80
2014,07,04,16,43,17.80
2014,07,04,16,44,17.70
2014,07,04,16,45,17.70
2014,07,04,16,46,17.60
2014,07,04,16,47,17.60
2014,07,04,16,48,17.50
2014,07,04,16,49,17.50
2014,07,04,16,50,17.50
2014,07,04,16,51,17.40
2014,07,04,16,52,17.40
2014,07,04,16,53,17.40
2014,07,04,16,54,17.40
2014,07,04,16,55,17.30
2014,07,04,16,56,17.30
2014,07,04,16,57,17.40
2014,07,04,16,58,17.30
2014,07,04,16,59,17.30
2014,07,04,17,00,17.30
2014,07,04,17,01,17.40
2014,07,04,17,02,17.40
2014,07,04,17,03,17.40
2014,07,04,17,04,17.40
2014,07,04,17,05,17.40
2014,07,04,17,06,17.40
2014,07,04,17,07,17.50
2014,07,04,17,08,17.50
2014,07,04,17,09,17.50
2014,07,04,17,10,17.60
2014,07,04,17,11,17.60
2014,07,04,17,12,17.60
2014,07,04,17,13,17.60
2014,07,04,17,14,17.60
2014,07,04,17,15,17.60
2014,07,04,17,16,17.60
2014,07,04,17,17,17.60
2014,07,04,17,18,17.60
2014,07,04,17,19,17.60
2014,07,04,17,20,17.60
2014,07,04,17,21,17.60
2014,07,04,17,22,17.60
2014,07,04,17,23,17.60
2014,07,04,17,24,17.50
2014,07,04,17,25,17.50
2014,07,04,17,26,17.60
2014,07,04,17,27,17.50
2014,07,04,17,28,17.50
2014,07,04,17,29,17.50
2014,07,04,17,30,17.50
2014,07,04,17,31,17.50
2014,07,04,17,32,17.50
2014,07,04,17,33,17.50
2014,07,04,17,34,17.50